Content
SEND FEEDBACK

Daily
Averages
Monthly
Summary
United States of America

ASHEVILLE, NORTH CAROLINA


Home > North America > United States > North Carolina
Elevation: 2240 feet     Latitude: 35 36N     Longitude: 082 32W

WEATHER
 
SELECT A DAY
Number of Records: 225,295;   Date Range: 1/1/95 - 7/7/14
 
SHARE

PRINT THIS DATA

[ ← Previous Day ]
WEATHER ALMANAC - JUNE 24, 2013
[ Next Day → ]
[ °C ]   °F
We're sorry. There is no daily almanac available for Asheville, North Carolina on June 24, 2013.
WEATHER BY HOUR - JUNE 24, 2013
[ °C ]   °F
Local TimeTemperatureDewpointHumidityBarometerVisibilityWind DirectionWind SpeedGust SpeedPrecipitationEventsConditions
1:18 AM66.2 °F64.4 °F94 %30.28 in10.0 miCalmThunderstormScattered Clouds
1:33 AM66.2 °F64.4 °F94 %30.28 in10.0 miCalmMostly Cloudy
1:54 AM66.9 °F64.9 °F93 %30.20 in10.0 miCalmMostly Cloudy
2:54 AM66.0 °F64.0 °F93 %30.18 in10.0 miCalmScattered Clouds
3:31 AM66.2 °F64.4 °F94 %30.25 in10.0 miESE (120°)3.5 mphMostly Cloudy
3:40 AM66.2 °F64.4 °F94 %30.25 in10.0 miSE (130°)3.5 mphMostly Cloudy
3:54 AM66.0 °F64.9 °F96 %30.17 in10.0 miCalmOvercast
4:34 AM64.4 °F64.4 °F100 %30.25 in10.0 miCalmOvercast
4:54 AM66.0 °F64.9 °F96 %30.17 in10.0 miCalmOvercast
5:54 AM66.0 °F64.0 °F93 %30.19 in10.0 miCalmOvercast
6:34 AM66.2 °F64.4 °F94 %10.0 miCalmOvercast
6:54 AM66.0 °F64.0 °F93 %10.0 miCalmOvercast
7:54 AM66.0 °F64.0 °F93 %7.0 miCalmOvercast
8:54 AM66.9 °F64.9 °F93 %30.24 in8.0 miCalmOvercast
9:31 AM69.8 °F64.4 °F83 %30.30 in9.0 miCalmOvercast
9:54 AM70.0 °F66.0 °F87 %30.24 in9.0 miCalmOvercast
10:31 AM71.6 °F66.2 °F83 %30.30 in10.0 miVariable3.5 mphMostly Cloudy
10:54 AM72.0 °F66.0 °F81 %30.24 in10.0 miSouth (180°)3.5 mphMostly Cloudy
11:54 AM78.1 °F66.9 °F68 %30.22 in10.0 miCalmClear
12:54 PM78.1 °F66.0 °F66 %30.20 in10.0 miCalm0.00 inRainLight Rain
1:03 PM78.8 °F68.0 °F69 %30.27 in10.0 miWNW (300°)4.6 mph0.00 inScattered Clouds
1:54 PM75.9 °F63.0 °F64 %30.18 in10.0 miSouth (180°)6.9 mph0.00 inMostly Cloudy
2:54 PM78.1 °F68.0 °F71 %30.14 in10.0 miSSW (210°)3.5 mph0.00 inMostly Cloudy
3:54 PM81.0 °F68.0 °F65 %30.12 in10.0 miSSW (210°)4.6 mphPartly Cloudy
4:54 PM82.0 °F68.0 °F62 %30.11 in10.0 miSouth (180°)10.4 mphPartly Cloudy
5:54 PM81.0 °F64.0 °F56 %30.09 in10.0 miSouth (190°)9.2 mphClear
6:54 PM80.1 °F64.0 °F58 %30.11 in10.0 miSouth (180°)12.7 mphClear
7:54 PM78.1 °F66.9 °F68 %30.13 in10.0 miSouth (180°)8.1 mphOvercast
8:22 PM77.0 °F66.2 °F69 %30.20 in10.0 miSSW (210°)8.1 mphOvercast
8:54 PM75.0 °F66.9 °F76 %30.14 in10.0 miSSW (200°)6.9 mph0.00 inRainLight Rain
9:54 PM73.0 °F66.0 °F79 %30.14 in10.0 miSSE (160°)4.6 mph0.00 inRainLight Rain
10:54 PM71.1 °F66.0 °F84 %30.16 in10.0 miSSE (160°)3.5 mph0.00 inScattered Clouds
11:54 PM70.0 °F66.0 °F87 %30.15 in10.0 miCalmMostly Cloudy
Hourly data recorded from KAVL, located miles away from Asheville, North Carolina







STORIES FROM OUR PARTNERS